{"data":{"norad_id":61711,"intl_designator":"2024-196E","name":"STARLINK-32312","alt_names":[],"object_type":"PAYLOAD","status":"ACTIVE","operator":null,"country":"US","launch_date":"2024-10-30","launch_site_code":"AFETR","launch_vehicle":null,"mission":null,"orbit_class":"UNKNOWN","rcs_meters":null,"size_class":null,"mass_kg":null,"dimensions":null,"purposes":["comms"],"wikipedia_slug":null,"has_3d_model":false,"image_url":null,"decayed_at":null,"tle_current":{"epoch":"2026-05-25T03:07:21.167040Z","epoch_age_seconds":70725,"freshness":"FRESH","line1":"1 61711U 24196E   26145.13010610  .00000512  00000+0  29418-4 0  9993","line2":"2 61711  53.1602 106.0178 0001219  96.1729 263.9410 15.30187923 88869","mean_motion":15.30187923,"eccentricity":0.0001219,"inclination_deg":53.1602,"raan_deg":106.0178,"arg_perigee_deg":96.1729,"mean_anomaly_deg":263.941,"bstar":2.9418e-5,"rev_number":8886,"period_min":94.106088432381,"perigee_km":474.41570138862,"apogee_km":476.08655741457,"semimajor_km":6853.3881294016,"source":"CELESTRAK","updated_at":"2026-05-25T13:38:19.444435Z"}}}